User: anonymous   Login
Location: Unspecified
(0.0000°N, 0.0000°E)
Time: 10:17:29
(UTC+00:00)
Language:

KEPLER-1 (CASE) - Orbit

View from above orbital plane
View from above orbital plane
View from above satellite
View from above satellite

Ground track
Ground track

The orbit data is extracted from the following two-line orbital elements,

1 43729U 18096L   19111.91892200 +.00002138 +00000-0 +83697-4 0  9994
2 43729 097.4646 182.0203 0018808 175.1476 184.9948 15.26786119021928
Epoch (UTC): 21 April 2019 22:03:14
Eccentricity: 0.0018808
inclination: 97.4646°
perigee height: 472 km
apogee height: 498 km
right ascension of ascending node: 182.0203°
argument of perigee: 175.1476°
revolutions per day: 15.26786119
mean anomaly at epoch: 184.9948°
orbit number at epoch: 2192

The dashed part of the orbit path shows where the satellite is in the earth's shadow,  

DLR